GW1987 Weather Reports


Display with metric or nautical units.
time (UTC)temp
F
wind
direction
speed
MPH
gust
MPH
rain 1hr
in
rain 24hr
in
rain mn
in
humidity
%
barometer
mb
20260906234543 63 360 9.0 12.0 0.00 0.96 0.69 64 927.1
20260906234018 62 360 9.0 11.0 0.00 0.96 0.69 64 927.2
20260906233517 62 360 8.0 11.0 0.00 0.96 0.69 64 927.3
20260906233041 62 360 8.0 11.0 0.00 0.96 0.69 64 927.3
20260906232516 63 360 7.0 13.0 0.00 0.96 0.69 63 927.4
20260906232016 63 360 10.0 15.0 0.00 0.96 0.69 63 927.4
20260906231534 63 360 10.0 15.0 0.00 0.96 0.69 63 927.1
20260906231017 62 360 9.0 13.0 0.00 0.96 0.69 63 927.4
20260906230517 62 360 8.0 13.0 0.00 0.96 0.69 63 927.5
20260906230037 62 360 8.0 13.0 0.00 0.96 0.69 62 927.4
20260906225516 62 360 9.0 12.0 0.00 0.96 0.69 62 927.4
20260906225015 62 360 7.0 13.0 0.00 0.96 0.69 62 927.4
20260906224542 63 360 8.0 13.0 0.00 0.96 0.69 63 927.3
20260906224017 62 360 9.0 13.0 0.00 0.96 0.69 63 927.2
20260906223516 63 360 9.0 16.0 0.00 0.96 0.69 63 927.3
20260906223045 62 360 11.0 16.0 0.00 0.96 0.69 64 927.2
20260906222517 63 360 11.0 16.0 0.00 0.96 0.69 63 927.3
20260906222016 63 360 11.0 16.0 0.00 0.96 0.69 62 927.3
20260906221541 63 360 12.0 16.0 0.00 0.96 0.69 64 927.3
20260906221019 62 360 9.0 15.0 0.00 0.96 0.69 65 927.5
20260906220519 62 360 9.0 15.0 0.00 0.96 0.69 64 927.7
20260906220038 62 360 7.0 16.0 0.00 0.96 0.69 64 927.8
20260906215516 61 360 9.0 16.0 0.00 0.96 0.69 65 927.9
20260906215016 61 360 9.0 12.0 0.00 0.96 0.69 65 927.9
20260906214544 61 360 5.0 14.0 0.00 0.96 0.69 67 927.9
20260906214015 61 360 9.0 14.0 0.00 0.96 0.69 64 927.8
20260906213517 61 360 6.0 12.0 0.00 0.96 0.69 65 927.8
20260906213045 60 360 8.0 13.0 0.00 0.96 0.69 66 927.9
20260906212517 60 360 9.0 13.0 0.00 0.96 0.69 65 928.0
20260906212017 60 360 8.0 14.0 0.00 0.96 0.69 65 928.0
20260906211542 59 360 8.0 11.0 0.00 0.96 0.69 66 927.9
20260906211016 59 360 9.0 11.0 0.00 0.96 0.69 65 928.0
20260906210519 59 360 6.0 11.0 0.00 0.96 0.69 65 928.0
20260906210046 59 360 7.0 11.0 0.00 0.96 0.69 65 928.1
20260906205516 59 360 7.0 11.0 0.00 0.96 0.69 66 927.8
20260906205016 59 360 8.0 11.0 0.00 0.96 0.69 65 928.1
20260906204554 59 360 8.0 11.0 0.00 0.96 0.69 65 928.0
20260906204017 59 360 6.0 12.0 0.00 0.96 0.69 66 927.9
20260906203516 59 360 8.0 12.0 0.00 0.96 0.69 66 928.0
20260906203055 59 360 8.0 12.0 0.00 0.96 0.69 65 927.8
20260906202515 58 360 7.0 11.0 0.00 0.96 0.69 66 928.0
20260906202020 58 360 4.0 10.0 0.00 0.96 0.69 66 927.9
20260906201540 58 360 6.0 10.0 0.00 0.96 0.69 66 927.8
20260906201017 58 360 5.0 10.0 0.00 0.96 0.69 67 927.7
20260906200518 58 360 5.0 9.0 0.00 0.96 0.69 67 927.9
20260906200043 58 360 5.0 9.0 0.00 0.96 0.69 68 927.8
20260906195518 57 360 4.0 8.0 0.00 0.96 0.69 68 927.8
20260906195016 57 360 5.0 8.0 0.00 0.96 0.69 68 928.0
20260906194542 57 360 5.0 9.0 0.00 0.96 0.69 69 927.9
20260906194017 57 360 6.0 8.0 0.00 0.96 0.69 68 928.0
20260906193517 57 360 5.0 8.0 0.00 0.96 0.69 69 928.3
20260906193043 57 360 5.0 8.0 0.00 0.96 0.69 68 928.2
20260906192518 57 360 5.0 9.0 0.00 0.96 0.69 69 928.1
20260906192019 57 360 5.0 9.0 0.00 0.96 0.69 69 927.9
20260906191538 57 360 4.0 6.0 0.00 0.96 0.69 69 928.1
20260906191019 57 360 5.0 8.0 0.00 0.96 0.69 69 928.3
20260906190516 57 360 4.0 8.0 0.00 0.96 0.69 69 928.5
20260906190043 57 360 5.0 9.0 0.00 0.96 0.69 69 928.5
20260906185517 57 360 6.0 10.0 0.00 0.96 0.69 69 928.5
20260906185017 57 360 7.0 11.0 0.00 0.96 0.69 69 928.6
20260906184542 57 360 6.0 10.0 0.00 0.96 0.69 70 928.7
20260906184020 57 360 7.0 12.0 0.00 0.96 0.69 70 928.7
20260906183517 57 360 8.0 12.0 0.00 0.96 0.69 70 928.7
20260906183044 58 360 7.0 11.0 0.00 0.96 0.69 70 928.6
20260906182518 57 360 8.0 10.0 0.00 0.96 0.69 70 928.7
20260906182018 58 360 6.0 9.0 0.00 0.96 0.69 70 928.9
20260906181549 58 360 7.0 9.0 0.00 0.96 0.69 69 928.8
20260906181019 58 360 5.0 9.0 0.00 0.96 0.69 69 928.7
20260906180518 58 360 4.0 9.0 0.00 0.96 0.69 69 928.7
20260906175517 58 360 8.0 11.0 0.00 0.96 0.69 69 928.7
20260906175021 58 360 5.0 10.0 0.00 0.96 0.69 69 928.8
20260906174540 58 360 7.0 12.0 0.00 0.96 0.69 69 929.0
20260906174021 58 360 9.0 14.0 0.00 0.96 0.69 69 928.5
20260906173520 58 360 10.0 14.0 0.00 0.96 0.69 69 928.7
20260906173043 58 360 10.0 14.0 0.00 0.96 0.69 70 928.3
20260906172516 58 360 7.0 14.0 0.00 0.96 0.69 70 928.5
20260906172018 58 360 8.0 14.0 0.00 0.96 0.69 70 928.8
20260906171550 58 360 8.0 19.0 0.00 0.96 0.69 70 928.9
20260906171015 58 360 12.0 19.0 0.00 0.96 0.69 70 928.3
20260906170517 57 360 13.0 17.0 0.00 0.96 0.69 71 928.1
20260906170044 57 360 11.0 14.0 0.00 0.96 0.69 72 928.4
20260906165522 57 360 9.0 13.0 0.00 0.96 0.69 73 928.6
20260906165020 56 360 11.0 13.0 0.00 0.96 0.69 73 928.7
20260906164546 56 360 7.0 14.0 0.00 0.96 0.69 73 929.2
20260906164019 56 360 11.0 14.0 0.00 0.96 0.69 73 929.1
20260906163518 56 360 10.0 12.0 0.00 0.96 0.69 73 929.3
20260906163053 55 360 9.0 12.0 0.01 0.96 0.69 74 929.3
20260906162518 55 360 7.0 13.0 0.01 0.96 0.69 74 929.2
20260906162018 55 360 8.0 16.0 0.01 0.96 0.69 74 928.9
20260906161550 55 360 10.0 16.0 0.01 0.96 0.69 74 928.8
20260906161018 55 360 10.0 17.0 0.01 0.96 0.69 75 928.4
20260906160517 55 360 13.0 17.0 0.01 0.96 0.69 78 928.4
20260906160053 55 360 12.0 18.0 0.01 0.96 0.69 79 928.3
20260906155517 55 360 14.0 18.0 0.01 0.98 0.69 80 928.0
20260906155019 54 360 12.0 16.0 0.01 0.98 0.69 80 928.1
20260906154546 54 360 7.0 11.0 0.01 0.98 0.69 80 929.0
20260906154019 54 360 4.0 5.0 0.01 0.98 0.69 80 929.9
20260906153516 53 360 3.0 5.0 0.01 0.98 0.69 80 930.3
20260906153044 53 360 2.0 6.0 0.00 0.97 0.68 80 930.2
20260906152517 53 360 4.0 9.0 0.00 0.97 0.68 80 930.6
20260906152016 53 360 5.0 8.0 0.00 0.97 0.68 80 930.3
20260906151549 53 360 0.0 4.0 0.00 0.97 0.68 80 930.1
20260906151018 53 360 2.0 8.0 0.00 0.97 0.68 80 929.8
20260906150520 53 360 4.0 8.0 0.00 0.97 0.68 80 929.8
20260906150047 53 360 5.0 8.0 0.00 0.97 0.68 80 930.0
20260906145516 53 360 4.0 8.0 0.00 0.98 0.68 80 930.0
20260906145018 53 360 4.0 8.0 0.00 0.98 0.68 80 929.9
20260906144551 53 360 5.0 8.0 0.00 0.98 0.68 80 929.8
20260906144015 53 360 5.0 10.0 0.00 0.98 0.68 80 929.9
20260906143517 53 360 6.0 10.0 0.01 0.98 0.68 80 929.8
20260906143050 53 360 8.0 10.0 0.01 0.98 0.68 80 929.8
20260906142520 52 360 6.0 10.0 0.02 0.98 0.68 80 929.9
20260906142021 52 360 7.0 10.0 0.04 0.98 0.68 80 930.1
20260906141549 52 360 7.0 11.0 0.07 0.98 0.68 80 930.3
20260906141017 52 360 8.0 11.0 0.09 0.98 0.68 80 930.3
20260906140518 52 360 9.0 11.0 0.09 0.98 0.68 80 930.4
20260906140050 52 360 7.0 10.0 0.09 0.98 0.68 80 930.7
20260906135518 52 360 5.0 9.0 0.12 1.00 0.68 80 930.8
20260906135015 52 360 7.0 9.0 0.19 1.00 0.68 80 930.9
20260906134548 52 360 5.0 6.0 0.19 1.00 0.68 80 931.2
20260906134018 52 360 3.0 5.0 0.19 1.00 0.68 80 931.6
20260906133521 52 360 3.0 4.0 0.22 0.98 0.66 80 931.8
20260906133111 52 360 3.0 5.0 0.22 0.97 0.66 80 931.7
20260906132517 52 360 3.0 5.0 0.25 0.97 0.65 80 932.0
20260906132018 52 360 2.0 6.0 0.22 0.95 0.63 80 931.6
20260906131547 52 360 3.0 6.0 0.22 0.93 0.61 80 931.8
20260906131017 52 360 4.0 8.0 0.25 0.91 0.58 80 931.2
20260906130516 52 360 4.0 10.0 0.24 0.90 0.58 80 931.3
20260906130050 52 360 5.0 10.0 0.24 0.90 0.58 80 930.9
20260906125516 52 360 4.0 10.0 0.22 0.90 0.56 80 930.9
20260906125016 52 360 6.0 10.0 0.14 0.82 0.48 80 931.0
20260906124542 52 360 7.0 10.0 0.14 0.82 0.48 80 930.9
20260906124018 52 360 6.0 9.0 0.13 0.81 0.47 79 930.7
20260906123521 52 360 6.0 9.0 0.09 0.78 0.44 80 930.9
20260906123049 52 360 6.0 10.0 0.08 0.76 0.42 79 930.8
20260906122517 52 360 7.0 10.0 0.06 0.74 0.39 80 931.1
20260906122019 52 360 5.0 9.0 0.06 0.74 0.39 80 931.1
20260906121542 52 360 4.0 12.0 0.07 0.72 0.39 80 930.6
20260906121018 52 360 6.0 14.0 0.02 0.68 0.34 80 930.4
20260906120517 52 360 10.0 13.0 0.02 0.68 0.34 80 930.0
20260906120043 52 360 9.0 12.0 0.02 0.68 0.34 80 930.3
20260906115518 52 360 6.0 14.0 0.02 0.69 0.34 80 930.4
20260906115017 52 360 9.0 15.0 0.02 0.69 0.34 80 930.4
20260906114548 52 360 10.0 16.0 0.02 0.69 0.34 80 930.2
20260906114020 52 360 13.0 16.0 0.03 0.69 0.34 79 930.1
20260906113517 52 360 10.0 14.0 0.08 0.69 0.34 79 930.3
20260906113050 52 360 6.0 11.0 0.12 0.69 0.34 79 930.7
20260906112519 52 360 6.0 12.0 0.12 0.69 0.34 79 930.5
20260906112019 52 360 10.0 13.0 0.11 0.68 0.33 79 930.6
20260906111601 52 360 10.0 15.0 0.09 0.66 0.32 80 930.5
20260906111016 52 360 9.0 18.0 0.09 0.66 0.32 80 930.7
20260906110517 52 360 13.0 18.0 0.09 0.66 0.32 80 930.7
20260906110041 52 360 12.0 17.0 0.09 0.66 0.32 80 930.7
20260906105521 52 360 12.0 18.0 0.12 0.68 0.32 79 930.7
20260906105025 52 360 15.0 18.0 0.12 0.68 0.32 79 931.1
20260906104541 52 360 14.0 28.0 0.12 0.68 0.32 80 931.1
20260906104017 52 360 15.0 28.0 0.11 0.66 0.31 79 931.0
20260906103517 53 360 16.0 25.0 0.04 0.59 0.24 80 932.2
20260906103042 53 360 10.0 15.0 0.02 0.58 0.22 80 931.3
20260906102521 53 360 9.0 14.0 0.02 0.58 0.22 80 930.2
20260906102016 52 360 10.0 14.0 0.02 0.58 0.22 80 930.0
20260906101544 53 360 11.0 14.0 0.02 0.58 0.22 80 930.0
20260906101016 53 360 10.0 12.0 0.02 0.58 0.22 80 930.0
20260906100516 53 360 8.0 12.0 0.02 0.58 0.22 80 930.2
20260906100054 53 360 10.0 11.0 0.02 0.58 0.22 80 930.1
20260906095531 53 360 6.0 17.0 0.00 0.56 0.19 80 930.6
20260906095018 53 360 11.0 17.0 0.00 0.56 0.19 80 930.3
20260906094538 52 360 11.0 17.0 0.00 0.56 0.19 80 930.2
20260906094021 52 360 13.0 17.0 0.00 0.56 0.19 80 930.2
20260906093517 52 360 13.0 17.0 0.00 0.56 0.19 79 930.6
20260906093035 53 360 13.0 16.0 0.00 0.56 0.19 79 930.5
20260906092516 53 360 11.0 15.0 0.00 0.56 0.19 80 930.7
20260906092020 53 360 10.0 14.0 0.00 0.56 0.19 80 930.8
20260906091534 53 360 11.0 14.0 0.00 0.56 0.19 80 930.7
20260906091016 53 360 9.0 13.0 0.00 0.56 0.19 80 930.7
20260906090521 53 360 9.0 13.0 0.00 0.56 0.19 80 930.6
20260906090039 53 360 9.0 13.0 0.00 0.56 0.19 80 930.3
20260906085516 53 360 7.0 12.0 0.00 0.56 0.19 79 930.3
20260906085017 53 360 8.0 10.0 0.00 0.56 0.19 80 930.2
20260906084535 53 360 8.0 11.0 0.00 0.56 0.19 79 930.1
20260906084022 53 360 7.0 11.0 0.01 0.56 0.19 79 930.3
20260906083518 53 360 7.0 11.0 0.01 0.56 0.19 79 930.4
20260906083033 53 360 5.0 12.0 0.01 0.56 0.19 79 930.4
20260906082515 53 360 6.0 14.0 0.02 0.56 0.19 79 930.5
20260906082016 53 360 10.0 14.0 0.02 0.56 0.19 79 930.2
20260906081537 53 360 10.0 16.0 0.02 0.56 0.19 79 930.1
20260906081016 53 360 11.0 16.0 0.02 0.56 0.19 79 930.1
20260906080516 53 360 10.0 19.0 0.03 0.56 0.19 79 930.3
20260906080040 53 360 12.0 19.0 0.04 0.56 0.19 79 930.0
20260906075514 53 360 14.0 19.0 0.04 0.56 0.19 79 930.1
20260906075016 53 360 12.0 17.0 0.06 0.56 0.19 79 930.1
20260906074542 53 360 10.0 14.0 0.08 0.56 0.19 78 930.9
20260906074017 53 360 10.0 12.0 0.08 0.55 0.19 78 931.2
20260906073517 53 360 6.0 9.0 0.09 0.55 0.19 78 931.8
20260906073044 53 360 5.0 10.0 0.09 0.53 0.18 78 932.0
20260906072518 53 360 6.0 9.0 0.12 0.53 0.18 77 931.9
20260906072015 53 360 6.0 9.0 0.13 0.53 0.18 77 932.0
20260906071541 53 360 5.0 9.0 0.14 0.53 0.18 77 932.0
20260906071017 53 360 5.0 9.0 0.14 0.52 0.17 76 932.0
20260906070515 53 360 6.0 10.0 0.16 0.52 0.17 76 931.8
20260906070046 53 360 8.0 10.0 0.16 0.52 0.16 75 931.9
20260906065522 53 360 5.0 10.0 0.16 0.51 0.14 75 932.1
20260906065018 53 360 5.0 11.0 0.16 0.50 0.14 74 932.0
20260906064544 53 360 8.0 12.0 0.14 0.48 0.12 74 932.2
20260906064021 53 360 8.0 12.0 0.14 0.47 0.11 73 932.1
20260906063518 53 360 7.0 13.0 0.13 0.45 0.09 73 932.0
20260906063043 54 360 8.0 13.0 0.12 0.44 0.08 73 932.1
20260906062517 54 360 8.0 13.0 0.09 0.42 0.06 73 932.2
20260906062016 54 360 7.0 11.0 0.09 0.41 0.04 72 932.1
20260906061542 54 360 4.0 13.0 0.09 0.39 0.03 72 932.2
20260906061017 54 360 9.0 14.0 0.09 0.38 0.02 72 932.1
20260906060520 54 360 10.0 14.0 0.09 0.37 0.01 71 932.1
20260906060047 54 360 10.0 14.0 0.11 0.36 0.00 71 932.0
20260906055519 54 360 10.0 14.0 0.13 0.36 0.35 71 932.0
20260906055018 54 360 9.0 14.0 0.14 0.35 0.34 71 932.0
20260906054557 54 360 10.0 13.0 0.16 0.35 0.34 71 932.0
20260906054016 54 360 9.0 13.0 0.17 0.34 0.33 70 932.2
20260906053517 54 360 9.0 15.0 0.18 0.33 0.32 70 932.1
20260906053040 54 360 10.0 15.0 0.18 0.33 0.32 70 932.1
20260906052519 54 360 9.0 14.0 0.18 0.32 0.31 70 932.2
20260906052018 54 360 9.0 14.0 0.19 0.32 0.31 69 932.4
20260906051603 54 360 10.0 13.0 0.18 0.31 0.29 69 932.6
20260906051016 54 360 8.0 11.0 0.16 0.29 0.28 69 933.1
20260906050516 54 360 7.0 10.0 0.14 0.26 0.26 69 933.3
20260906050050 55 360 5.0 8.0 0.13 0.25 0.24 69 933.4
20260906045518 55 360 3.0 5.0 0.11 0.26 0.22 69 933.3
20260906045017 55 360 2.0 5.0 0.09 0.24 0.19 68 933.4
20260906044553 55 360 3.0 5.0 0.07 0.22 0.18 69 933.2
20260906044026 55 360 3.0 8.0 0.04 0.19 0.16 68 933.1
20260906043519 55 360 4.0 8.0 0.03 0.18 0.14 69 932.9
20260906043056 55 360 2.0 4.0 0.02 0.17 0.13 69 932.8
20260906042516 55 360 2.0 4.0 0.02 0.17 0.13 69 932.5
20260906042018 55 360 3.0 6.0 0.01 0.16 0.12 69 932.3
20260906041552 55 360 4.0 8.0 0.01 0.16 0.12 69 932.1
20260906041018 55 360 5.0 10.0 0.01 0.16 0.12 69 932.1
20260906040516 55 360 5.0 10.0 0.01 0.16 0.12 69 932.1
20260906040128 55 360 4.0 8.0 0.00 0.14 0.11 68 932.2
20260906035517 56 360 4.0 11.0 0.01 0.14 0.11 68 932.2
20260906035017 56 360 5.0 12.0 0.01 0.14 0.11 68 931.9
20260906034600 56 360 6.0 11.0 0.01 0.14 0.11 68 931.9
20260906034017 56 360 9.0 11.0 0.01 0.14 0.11 68 931.7
20260906033517 56 360 8.0 14.0 0.01 0.14 0.11 68 931.7
20260906033055 56 360 9.0 14.0 0.02 0.14 0.11 68 931.5
20260906032516 56 360 8.0 14.0 0.02 0.14 0.11 68 931.5
20260906032016 56 360 10.0 14.0 0.02 0.14 0.11 68 931.5
20260906031550 56 360 9.0 13.0 0.02 0.14 0.11 68 931.5
20260906031021 56 360 8.0 11.0 0.02 0.14 0.11 68 931.5
20260906030518 56 360 5.0 10.0 0.02 0.14 0.11 67 931.4
20260906030049 56 360 8.0 10.0 0.02 0.14 0.11 67 931.2
20260906025519 57 360 7.0 10.0 0.01 0.14 0.09 67 931.3
20260906025017 57 360 7.0 10.0 0.01 0.14 0.09 66 931.3
20260906024612 57 360 7.0 9.0 0.01 0.14 0.09 65 931.3
20260906024022 57 360 6.0 10.0 0.01 0.14 0.09 64 930.9
20260906023517 58 360 6.0 12.0 0.01 0.14 0.09 64 931.1
20260906023100 58 360 9.0 13.0 0.00 0.13 0.09 62 930.7
20260906022520 59 360 8.0 14.0 0.00 0.13 0.09 61 930.6
20260906022019 59 360 11.0 15.0 0.00 0.13 0.09 60 930.4
20260906021549 59 360 10.0 15.0 0.00 0.13 0.09 59 930.4
20260906021017 59 360 10.0 13.0 0.00 0.13 0.09 59 930.1
20260906020519 60 360 10.0 14.0 0.00 0.13 0.09 58 930.2
20260906020057 60 360 10.0 14.0 0.00 0.13 0.09 58 930.1
20260906015516 60 360 11.0 18.0 0.00 0.13 0.09 58 930.1
20260906015016 60 360 14.0 18.0 0.00 0.13 0.09 57 930.0
20260906014549 60 360 12.0 17.0 0.00 0.13 0.09 57 930.2
20260906014018 61 360 11.0 17.0 0.00 0.13 0.09 57 930.2
20260906013516 61 360 13.0 18.0 0.00 0.13 0.09 56 930.2
20260906013049 61 360 14.0 18.0 0.00 0.13 0.09 56 930.1
20260906012520 62 360 10.0 16.0 0.00 0.13 0.09 56 930.2
20260906012016 62 360 11.0 16.0 0.00 0.13 0.09 55 930.1
20260906011549 62 360 12.0 15.0 0.00 0.13 0.09 55 930.2
20260906011021 62 360 11.0 17.0 0.00 0.13 0.09 55 930.0
20260906010518 62 360 11.0 17.0 0.00 0.13 0.09 55 929.6
20260906010045 63 360 10.0 12.0 0.00 0.13 0.09 54 929.6
20260906005518 63 360 9.0 14.0 0.00 0.13 0.09 54 929.7
20260906005017 63 360 10.0 14.0 0.00 0.13 0.09 53 929.7
20260906004553 63 360 11.0 14.0 0.00 0.13 0.09 53 929.6
20260906004019 64 360 11.0 15.0 0.00 0.13 0.09 53 929.8
20260906003518 64 360 11.0 15.0 0.00 0.13 0.09 53 929.9
20260906003051 64 360 11.0 14.0 0.00 0.13 0.09 52 929.8
20260906002517 65 360 6.0 12.0 0.00 0.13 0.09 51 929.8
20260906002017 65 360 7.0 15.0 0.00 0.13 0.09 51 929.9
20260906001551 65 360 11.0 15.0 0.00 0.13 0.09 52 930.0
20260906001022 65 360 10.0 15.0 0.00 0.13 0.09 52 930.0
20260906000519 66 360 11.0 15.0 0.00 0.13 0.09 50 930.0
20260906000058 67 360 8.0 13.0 0.00 0.13 0.09 49 930.0
20260905235517 67 360 7.0 13.0 0.00 0.13 0.09 49 930.0
20260905235016 67 360 9.0 13.0 0.00 0.13 0.09 49 929.9